SCP
0 0 0 0 0 0 0 0 0 0 0 0 0 0 0 0 0 0 0 0 0 0 0 0 0 0 0 0 0 0 0 0 0 0 0 0 0 0 0 0 0 0 0 0
0 0 0 0 0 0 0 0 0 0 0 0 0 0 0 0 0 0 0 0 0 0 0 0 0 0 0 0 0 0 0 0 0 0 0 0 0 0 0 0 0 0 0 0
0 0 0 0 0 0 0 0 0 0 0 0 0 0 0 0 0 0 0 0 0 0 0 0 0 0 0 0 0 0 0 0 0 0 0 0 0 0 0 0 0 0 0 0
0 0 0 0 0 0 0 0 0 0 0 0 0 0 0 0 0 0 0 0 0 0 0 0 0 0 0 0 0 0 0 0 0 0 0 0 0 0 0 0 0 0 0 0
0 0 0 0 0 0 0 0 0 0 0 0 0 0 0 0 0 0 0 0 0 0 0 0 0 0 0 0 0 0 0 0 0 0 0 0 0 0 0 0 0 0 0 0
0 0 0 0 0 0 0 0 0 0 0 0 0 0 0 0 -0 0 0 0 0 0 0 0 0 0 0 0 0 0 0 0 0 0 0 0 0 0 0 0 0 0 0 0
0 0 0 0 0 0 0 0 0 0 0 0 0 0 0 0 -0 0 0 0 0 0 0 0 0 0 0 0 0 0 0 0 0 0 0 0 0 0 0 0 0 0 0 0
0 0 0 0 0 0 0 0 0 0 0 0 0 0 0 0 -0 0 0 0 0 0 0 0 0 0 0 0 0 0 0 0 0 0 0 0 0 0 0 0 0 0 0 0
0 0 0 0 0 0 0 0 0 0 0 0 0 0 0 0 0 0 0 -0 -0 -0 -0 0 0 0 0 0 0 0 0 0 0 0 0 0 0 0 0 0 0 0 0 0
0 0 0 0 0 0 0 0 0 0 0 0 0 -0 0 0 0 0 0 0 0 0 0 0 0 0 0 0 0 0 0 0 0 0 0 0 0 0 0 0 0 0 0 0
0 0 0 0 0 0 0 0 0 0 0 0 0 0 0 -0 -0 -0 0 0 0 0 0 -0 0 0 0 0 0 0 0 0 0 0 0 0 0 0 0 0 0 0 0 0
0 0 0 0 0 0 0 0 0 0 0 0 0 0 0 0 0 0 0 0 0 -0 -0 -0 0 0 0 0 0 0 0 0 0 0 0 0 0 0 0 0 0 0 0 0
0 0 0 0 0 0 0 0 0 0 0 0 0 0 0 0 0 0 0 0 0 0 -0 -0 0 0 0 0 0 0 0 0 0 0 0 0 0 0 0 0 0 0 0 0
0 0 0 0 0 0 0 0 0 0 0 0 0 0 0 0 0 0 0 0 0 0 -0 -0 0 0 0 0 0 0 0 0 0 0 0 0 0 0 0 0 0 0 0 0
0 0 0 0 0 0 0 0 0 0 0 0 0 0 0 0 0 0 0 0 0 0 -0 0 0 0 0 0 0 0 0 0 0 0 0 0 0 0 0 0 0 0 0 0
0 0 0 0 0 0 0 0 0 0 0 0 0 0 0 0 0 0 0 0 0 0 0 0 0 0 0 0 0 0 0 0 0 0 0 0 0 0 0 0 0 0 0 0
0 0 0 0 0 0 0 0 0 0 0 0 0 0 0 0 0 0 0 0 0 0 0 0 0 0 0 0 0 0 0 0 0 0 0 0 0 0 0 0 0 0 0 0
0 0 0 0 0 0 0 0 0 0 0 0 0 0 0 0 0 0 0 0 0 0 0 0 0 0 0 0 0 0 0 0 0 0 0 0 0 0 0 0 0 0 0 0
0 0 0 0 0 0 0 0 0 0 0 0 0 0 0 0 0 0 0 0 0 0 0 0 0 0 0 0 0 0 0 0 0 0 0 0 0 0 0 0 0 0 0 0
0 0 0 0 0 0 0 -0 0 0 0 0 0 0 0 0 0 0 0 0 0 0 0 0 0 0 0 0 0 0 0 0 0 0 0 0 0 0 0 0 0 0 0 0
0 0 0 0 0 0 0 0 0 0 0 0 0 0 0 0 0 0 0 0 0 0 0 0 0 0 0 0 0 0 0 0 0 0 0 0 0 0 0 0 0 0 0 0
0 0 0 0 0 0 0 0 0 0 0 0 0 0 0 0 0 0 0 0 0 0 0 0 0 0 0 0 0 0 0 0 0 0 0 0 0 0 0 0 0 0 0 0
0 0 0 0 0 0 0 0 0 0 0 0 0 0 0 0 0 0 0 0 0 0 0 0 0 0 0 0 0 0 0 0 0 0 0 0 0 0 0 0 0 0 0 0
0 0 0 0 0 0 0 0 0 0 0 0 0 0 0 0 0 0 0 0 0 0 0 0 0 0 0 0 0 0 0 0 0 0 0 0 0 0 0 0 0 0 0 0
0 0 0 0 0 0 0 0 0 0 0 0 0 0 0 0 0 0 -0 -0 -0 0 0 0 -0 -0 0 0 0 0 0 0 0 0 0 0 0 0 0 0 0 0 0 0
0 0 0 0 0 0 0 0 0 0 0 0 0 0 0 0 0 0 0 0 0 0 0 0 0 0 -0 0 0 0 0 0 0 0 0 0 0 0 0 0 0 0 0 0
Wind_Speed_500mb
7 10 19 28 25 5 9 10 9 5 6 5 21 29 27 28 30 38 45 44 42 45 51 52 58 60 61 63 65 65 64 66 60 61 62 58 57 54 52 51 51 51 46 42
9 18 13 6 14 15 12 12 12 5 1 3 16 27 32 36 37 44 49 53 58 58 56 56 62 59 57 59 61 59 58 54 60 63 64 63 59 58 53 53 50 48 45 43
13 5 14 13 14 17 17 22 14 6 1 4 15 27 17 8 19 28 39 54 55 54 51 47 52 60 64 68 68 66 61 54 51 50 52 60 66 67 64 59 54 48 44 41
8 6 12 19 14 17 14 19 18 11 4 9 6 13 8 13 21 25 42 32 41 37 45 50 52 58 60 63 66 64 65 64 59 55 56 56 55 64 69 66 61 49 40 40
9 16 21 13 9 22 2 8 11 8 10 4 10 11 7 7 16 30 13 6 5 7 21 29 34 38 41 51 46 55 69 70 67 71 66 59 54 50 51 57 51 49 47 44
5 1 7 8 6 20 17 13 10 5 4 9 18 16 21 14 16 3 3 14 18 19 22 25 27 24 26 30 37 36 41 53 62 64 65 59 53 45 43 45 47 48 47 46
1 6 3 7 16 6 8 15 4 6 8 10 3 13 23 26 26 17 15 25 26 30 26 24 20 14 21 29 31 28 26 28 35 42 44 45 43 42 39 40 39 39 38 36
17 10 24 20 10 18 29 15 7 11 9 6 4 13 7 16 27 30 24 23 15 18 20 19 16 10 15 22 25 21 18 17 22 29 33 32 30 26 25 24 24 26 27 29
13 8 5 9 4 11 14 18 1 5 3 6 14 19 19 20 26 24 8 5 9 12 16 17 14 15 21 24 24 22 22 21 19 18 15 15 15 17 19 21 24 28 32 34
9 6 2 6 3 7 13 23 8 6 10 17 18 18 19 8 19 21 9 11 24 21 12 15 17 21 27 29 29 27 23 17 15 15 15 16 16 18 20 21 22 25 28 30
13 5 6 12 20 23 12 14 8 6 10 10 17 16 6 24 22 13 5 9 22 16 12 17 20 25 30 32 31 28 25 22 20 17 12 11 12 14 17 21 23 26 30 33
22 5 11 14 3 5 21 21 31 15 12 11 11 26 9 11 13 11 15 12 7 8 4 17 20 26 34 36 36 33 31 28 23 18 13 11 13 18 22 26 29 30 31 32
20 9 9 6 9 7 14 26 23 34 6 27 19 25 7 6 17 21 16 10 8 13 12 8 26 41 43 43 43 42 39 34 28 20 15 15 18 23 28 30 30 31 34 37
38 14 21 21 6 8 13 34 37 34 18 38 32 57 33 15 14 14 15 22 17 19 27 24 28 49 53 53 52 50 47 42 36 29 25 24 27 29 32 32 32 33 38 42
24 13 26 36 16 7 13 21 35 38 47 40 47 49 49 38 37 41 21 33 42 43 51 40 38 43 64 60 58 55 52 48 44 40 34 34 38 39 40 40 38 39 38 40
9 14 24 18 32 36 33 20 18 43 49 47 52 54 55 58 45 36 44 55 51 56 58 49 48 43 50 63 60 61 59 53 52 50 44 43 49 51 50 48 46 44 40 39
7 5 14 36 33 32 24 43 46 37 35 40 43 52 48 47 36 50 57 49 52 59 62 59 48 39 43 59 56 59 54 53 58 64 65 58 56 61 59 55 51 45 40 39
9 3 5 13 10 25 24 30 47 52 56 48 45 47 59 67 62 36 38 59 60 58 65 65 54 48 54 56 64 58 65 64 65 72 76 76 71 70 66 61 54 47 42 40
32 12 9 9 17 15 31 30 14 28 45 44 47 56 74 73 56 50 65 73 59 66 80 75 70 68 54 60 64 69 71 66 66 71 75 76 75 74 71 63 56 49 43 41
31 30 18 12 10 24 29 20 8 12 26 37 42 44 50 63 23 31 59 54 60 65 63 58 41 41 42 33 37 54 54 53 60 57 58 61 66 72 71 63 58 51 45 41
11 15 30 27 21 12 18 7 7 12 23 7 18 47 58 34 39 62 64 49 48 53 43 40 47 60 60 53 51 53 53 59 53 55 55 56 61 69 68 65 59 52 45 43
21 15 17 18 23 34 29 20 25 28 33 46 35 41 46 49 57 60 71 63 63 54 53 43 44 50 46 48 50 57 65 61 57 55 55 58 62 68 69 65 59 51 46 45
20 26 23 17 19 7 30 55 61 57 51 52 44 53 35 43 47 44 51 49 39 33 39 40 44 49 51 45 46 57 60 59 60 57 56 56 60 65 65 61 56 50 47 48
15 26 16 27 34 42 69 77 71 60 67 79 58 35 29 39 44 63 65 60 46 46 49 43 44 50 50 47 51 54 55 57 57 55 54 57 62 64 62 59 53 50 49 51
20 8 15 23 32 44 55 75 78 64 68 68 79 58 47 54 69 54 54 50 43 40 38 40 44 50 54 57 58 55 55 55 53 50 53 57 58 58 56 54 52 53 52 54
31 30 21 23 45 36 45 41 26 32 45 38 39 43 50 33 44 43 43 41 42 38 35 35 36 40 44 51 53 51 51 48 48 51 53 54 54 52 50 50 51 53 55 57
Wind_Direction_500mb
162 186 204 205 208 128 164 193 205 209 102 280 252 258 260 263 268 266 265 263 259 256 258 255 251 249 249 250 250 250 250 250 247 246 247 248 249 251 252 253 253 255 255 253
151 220 190 191 181 191 203 185 222 259 81 268 280 274 275 262 256 249 252 255 256 258 256 258 255 252 249 249 251 251 251 249 246 247 249 250 252 253 254 255 256 255 254 252
177 115 167 168 169 194 217 226 204 243 237 176 302 273 249 240 255 251 250 250 254 258 264 261 261 260 255 252 250 250 249 246 245 246 246 245 246 249 249 249 252 250 247 246
226 136 151 173 182 196 218 218 223 212 234 254 330 284 264 268 271 260 261 248 257 257 263 271 272 264 256 251 247 244 242 242 244 241 243 243 249 251 250 249 249 247 244 243
165 171 162 174 186 179 217 149 187 188 216 282 195 252 246 276 270 255 256 257 216 266 284 293 290 277 258 242 240 243 239 237 241 241 241 243 245 249 247 250 249 248 248 245
91 17 197 195 141 179 141 111 93 92 174 239 215 234 258 223 230 244 198 175 302 298 284 303 304 287 245 231 230 231 230 232 238 239 235 235 237 240 244 246 245 245 249 250
150 195 204 184 121 126 187 164 173 214 208 253 119 221 270 275 255 244 258 282 298 294 290 288 296 286 230 224 220 228 232 233 234 228 228 231 233 235 236 241 247 253 256 259
186 209 182 187 199 175 192 192 200 242 238 281 121 232 217 278 291 275 255 258 280 310 289 285 276 246 206 198 200 203 206 207 206 214 219 222 226 230 233 237 243 250 252 253
178 221 181 194 168 171 176 214 124 79 83 274 235 247 274 279 276 264 218 260 335 323 276 260 242 211 189 186 185 183 184 182 178 178 185 197 210 223 232 240 248 255 261 265
172 177 6 160 244 218 204 148 156 215 233 251 246 254 247 189 235 256 310 21 4 353 289 242 212 191 183 182 182 179 177 186 190 193 201 208 220 230 240 247 255 264 268 268
164 238 121 151 209 189 170 196 209 218 222 252 271 256 218 233 243 267 228 341 329 312 287 230 205 189 188 192 193 194 195 189 181 179 192 209 229 243 253 259 263 267 271 273
199 215 219 205 126 246 250 224 204 214 202 239 283 259 159 208 175 210 266 292 44 46 232 218 221 215 208 206 207 206 200 195 190 194 209 234 258 266 270 272 275 277 280 282
165 205 208 225 209 183 218 220 234 240 283 242 235 259 55 255 269 281 281 190 64 39 19 310 244 231 229 222 217 211 210 208 210 218 238 261 269 272 270 270 275 281 284 283
172 183 216 226 244 145 206 225 222 221 227 245 240 264 252 249 262 266 247 222 300 306 328 323 276 241 234 227 221 220 219 219 223 231 242 262 268 271 269 269 273 277 277 278
179 228 232 245 254 233 262 249 227 220 231 238 249 257 263 262 262 264 283 279 284 293 307 298 297 278 242 233 230 231 230 232 235 238 248 262 265 266 266 263 264 271 273 276
208 234 241 262 254 249 247 242 247 233 232 241 252 260 264 270 272 268 261 264 279 283 286 280 287 288 248 235 237 239 239 242 247 249 253 261 264 260 259 259 263 266 272 280
166 236 245 251 252 249 243 226 226 239 243 232 244 251 272 275 261 252 261 274 268 272 277 279 276 280 279 238 242 242 248 255 260 259 255 253 260 257 254 253 258 263 271 280
140 155 185 267 334 244 246 255 229 230 239 242 252 263 263 263 268 280 268 262 264 271 282 278 273 270 273 261 245 245 264 267 261 260 259 257 257 254 249 249 254 261 268 277
212 187 217 221 231 288 299 274 238 228 249 245 249 250 254 267 274 265 260 262 264 271 276 276 277 284 278 264 261 262 264 265 261 258 256 255 252 248 245 246 249 256 263 272
217 213 227 211 231 258 263 279 344 253 258 255 240 250 256 261 258 260 264 267 267 282 280 274 273 277 274 263 267 260 254 258 256 262 264 259 248 241 241 243 245 250 257 267
188 216 221 234 241 244 268 278 9 232 266 8 329 260 262 261 257 274 283 276 272 277 269 268 271 275 275 277 277 267 265 264 265 267 264 254 243 239 238 239 241 246 254 264
209 206 218 231 247 249 235 261 235 244 253 264 274 277 285 284 283 276 281 277 278 274 277 277 273 273 276 274 271 268 267 267 264 263 259 248 238 233 233 234 238 245 255 268
236 222 235 230 244 277 249 238 248 242 232 266 256 256 263 280 293 294 292 298 283 274 284 283 278 273 270 269 274 273 274 271 267 262 257 244 234 232 234 237 243 251 260 272
249 253 255 261 259 262 268 270 267 262 257 256 253 247 260 269 269 284 285 283 278 279 282 282 280 284 285 281 271 269 270 269 267 260 247 234 228 228 232 238 245 254 265 276
243 192 238 255 256 262 261 263 266 262 254 251 252 258 258 267 273 275 274 277 279 277 279 286 292 293 290 283 282 271 264 260 256 248 238 233 230 232 238 247 255 262 270 279
231 240 234 245 258 252 263 271 279 297 289 270 265 273 265 255 270 276 275 276 280 282 287 290 292 290 287 282 275 270 263 254 245 236 233 234 236 239 246 256 264 270 276 281
Wind_Speed_850mb
7 10 19 28 25 5 9 10 9 5 6 5 21 29 27 28 30 38 45 44 42 45 51 52 58 60 61 63 65 65 64 66 60 61 62 58 57 54 52 51 51 51 46 42
9 18 13 6 14 15 12 12 12 5 1 3 16 27 32 36 37 44 49 53 58 58 56 56 62 59 57 59 61 59 58 54 60 63 64 63 59 58 53 53 50 48 45 43
13 5 14 13 14 17 17 22 14 6 1 4 15 27 17 8 19 28 39 54 55 54 51 47 52 60 64 68 68 66 61 54 51 50 52 60 66 67 64 59 54 48 44 41
8 6 12 19 14 17 14 19 18 11 4 9 6 13 8 13 21 25 42 32 41 37 45 50 52 58 60 63 66 64 65 64 59 55 56 56 55 64 69 66 61 49 40 40
9 16 21 13 9 22 2 8 11 8 10 4 10 11 7 7 16 30 13 6 5 7 21 29 34 38 41 51 46 55 69 70 67 71 66 59 54 50 51 57 51 49 47 44
5 1 7 8 6 20 17 13 10 5 4 9 18 16 21 14 16 3 3 14 18 19 22 25 27 24 26 30 37 36 41 53 62 64 65 59 53 45 43 45 47 48 47 46
1 6 3 7 16 6 8 15 4 6 8 10 3 13 23 26 26 17 15 25 26 30 26 24 20 14 21 29 31 28 26 28 35 42 44 45 43 42 39 40 39 39 38 36
17 10 24 20 10 18 29 15 7 11 9 6 4 13 7 16 27 30 24 23 15 18 20 19 16 10 15 22 25 21 18 17 22 29 33 32 30 26 25 24 24 26 27 29
13 8 5 9 4 11 14 18 1 5 3 6 14 19 19 20 26 24 8 5 9 12 16 17 14 15 21 24 24 22 22 21 19 18 15 15 15 17 19 21 24 28 32 34
9 6 2 6 3 7 13 23 8 6 10 17 18 18 19 8 19 21 9 11 24 21 12 15 17 21 27 29 29 27 23 17 15 15 15 16 16 18 20 21 22 25 28 30
13 5 6 12 20 23 12 14 8 6 10 10 17 16 6 24 22 13 5 9 22 16 12 17 20 25 30 32 31 28 25 22 20 17 12 11 12 14 17 21 23 26 30 33
22 5 11 14 3 5 21 21 31 15 12 11 11 26 9 11 13 11 15 12 7 8 4 17 20 26 34 36 36 33 31 28 23 18 13 11 13 18 22 26 29 30 31 32
20 9 9 6 9 7 14 26 23 34 6 27 19 25 7 6 17 21 16 10 8 13 12 8 26 41 43 43 43 42 39 34 28 20 15 15 18 23 28 30 30 31 34 37
38 14 21 21 6 8 13 34 37 34 18 38 32 57 33 15 14 14 15 22 17 19 27 24 28 49 53 53 52 50 47 42 36 29 25 24 27 29 32 32 32 33 38 42
24 13 26 36 16 7 13 21 35 38 47 40 47 49 49 38 37 41 21 33 42 43 51 40 38 43 64 60 58 55 52 48 44 40 34 34 38 39 40 40 38 39 38 40
9 14 24 18 32 36 33 20 18 43 49 47 52 54 55 58 45 36 44 55 51 56 58 49 48 43 50 63 60 61 59 53 52 50 44 43 49 51 50 48 46 44 40 39
7 5 14 36 33 32 24 43 46 37 35 40 43 52 48 47 36 50 57 49 52 59 62 59 48 39 43 59 56 59 54 53 58 64 65 58 56 61 59 55 51 45 40 39
9 3 5 13 10 25 24 30 47 52 56 48 45 47 59 67 62 36 38 59 60 58 65 65 54 48 54 56 64 58 65 64 65 72 76 76 71 70 66 61 54 47 42 40
32 12 9 9 17 15 31 30 14 28 45 44 47 56 74 73 56 50 65 73 59 66 80 75 70 68 54 60 64 69 71 66 66 71 75 76 75 74 71 63 56 49 43 41
31 30 18 12 10 24 29 20 8 12 26 37 42 44 50 63 23 31 59 54 60 65 63 58 41 41 42 33 37 54 54 53 60 57 58 61 66 72 71 63 58 51 45 41
11 15 30 27 21 12 18 7 7 12 23 7 18 47 58 34 39 62 64 49 48 53 43 40 47 60 60 53 51 53 53 59 53 55 55 56 61 69 68 65 59 52 45 43
21 15 17 18 23 34 29 20 25 28 33 46 35 41 46 49 57 60 71 63 63 54 53 43 44 50 46 48 50 57 65 61 57 55 55 58 62 68 69 65 59 51 46 45
20 26 23 17 19 7 30 55 61 57 51 52 44 53 35 43 47 44 51 49 39 33 39 40 44 49 51 45 46 57 60 59 60 57 56 56 60 65 65 61 56 50 47 48
15 26 16 27 34 42 69 77 71 60 67 79 58 35 29 39 44 63 65 60 46 46 49 43 44 50 50 47 51 54 55 57 57 55 54 57 62 64 62 59 53 50 49 51
20 8 15 23 32 44 55 75 78 64 68 68 79 58 47 54 69 54 54 50 43 40 38 40 44 50 54 57 58 55 55 55 53 50 53 57 58 58 56 54 52 53 52 54
31 30 21 23 45 36 45 41 26 32 45 38 39 43 50 33 44 43 43 41 42 38 35 35 36 40 44 51 53 51 51 48 48 51 53 54 54 52 50 50 51 53 55 57
Wind_Direction_850mb
162 186 204 205 208 128 164 193 205 209 102 280 252 258 260 263 268 266 265 263 259 256 258 255 251 249 249 250 250 250 250 250 247 246 247 248 249 251 252 253 253 255 255 253
151 220 190 191 181 191 203 185 222 259 81 268 280 274 275 262 256 249 252 255 256 258 256 258 255 252 249 249 251 251 251 249 246 247 249 250 252 253 254 255 256 255 254 252
177 115 167 168 169 194 217 226 204 243 237 176 302 273 249 240 255 251 250 250 254 258 264 261 261 260 255 252 250 250 249 246 245 246 246 245 246 249 249 249 252 250 247 246
226 136 151 173 182 196 218 218 223 212 234 254 330 284 264 268 271 260 261 248 257 257 263 271 272 264 256 251 247 244 242 242 244 241 243 243 249 251 250 249 249 247 244 243
165 171 162 174 186 179 217 149 187 188 216 282 195 252 246 276 270 255 256 257 216 266 284 293 290 277 258 242 240 243 239 237 241 241 241 243 245 249 247 250 249 248 248 245
91 17 197 195 141 179 141 111 93 92 174 239 215 234 258 223 230 244 198 175 302 298 284 303 304 287 245 231 230 231 230 232 238 239 235 235 237 240 244 246 245 245 249 250
150 195 204 184 121 126 187 164 173 214 208 253 119 221 270 275 255 244 258 282 298 294 290 288 296 286 230 224 220 228 232 233 234 228 228 231 233 235 236 241 247 253 256 259
186 209 182 187 199 175 192 192 200 242 238 281 121 232 217 278 291 275 255 258 280 310 289 285 276 246 206 198 200 203 206 207 206 214 219 222 226 230 233 237 243 250 252 253
178 221 181 194 168 171 176 214 124 79 83 274 235 247 274 279 276 264 218 260 335 323 276 260 242 211 189 186 185 183 184 182 178 178 185 197 210 223 232 240 248 255 261 265
172 177 6 160 244 218 204 148 156 215 233 251 246 254 247 189 235 256 310 21 4 353 289 242 212 191 183 182 182 179 177 186 190 193 201 208 220 230 240 247 255 264 268 268
164 238 121 151 209 189 170 196 209 218 222 252 271 256 218 233 243 267 228 341 329 312 287 230 205 189 188 192 193 194 195 189 181 179 192 209 229 243 253 259 263 267 271 273
199 215 219 205 126 246 250 224 204 214 202 239 283 259 159 208 175 210 266 292 44 46 232 218 221 215 208 206 207 206 200 195 190 194 209 234 258 266 270 272 275 277 280 282
165 205 208 225 209 183 218 220 234 240 283 242 235 259 55 255 269 281 281 190 64 39 19 310 244 231 229 222 217 211 210 208 210 218 238 261 269 272 270 270 275 281 284 283
172 183 216 226 244 145 206 225 222 221 227 245 240 264 252 249 262 266 247 222 300 306 328 323 276 241 234 227 221 220 219 219 223 231 242 262 268 271 269 269 273 277 277 278
179 228 232 245 254 233 262 249 227 220 231 238 249 257 263 262 262 264 283 279 284 293 307 298 297 278 242 233 230 231 230 232 235 238 248 262 265 266 266 263 264 271 273 276
208 234 241 262 254 249 247 242 247 233 232 241 252 260 264 270 272 268 261 264 279 283 286 280 287 288 248 235 237 239 239 242 247 249 253 261 264 260 259 259 263 266 272 280
166 236 245 251 252 249 243 226 226 239 243 232 244 251 272 275 261 252 261 274 268 272 277 279 276 280 279 238 242 242 248 255 260 259 255 253 260 257 254 253 258 263 271 280
140 155 185 267 334 244 246 255 229 230 239 242 252 263 263 263 268 280 268 262 264 271 282 278 273 270 273 261 245 245 264 267 261 260 259 257 257 254 249 249 254 261 268 277
212 187 217 221 231 288 299 274 238 228 249 245 249 250 254 267 274 265 260 262 264 271 276 276 277 284 278 264 261 262 264 265 261 258 256 255 252 248 245 246 249 256 263 272
217 213 227 211 231 258 263 279 344 253 258 255 240 250 256 261 258 260 264 267 267 282 280 274 273 277 274 263 267 260 254 258 256 262 264 259 248 241 241 243 245 250 257 267
188 216 221 234 241 244 268 278 9 232 266 8 329 260 262 261 257 274 283 276 272 277 269 268 271 275 275 277 277 267 265 264 265 267 264 254 243 239 238 239 241 246 254 264
209 206 218 231 247 249 235 261 235 244 253 264 274 277 285 284 283 276 281 277 278 274 277 277 273 273 276 274 271 268 267 267 264 263 259 248 238 233 233 234 238 245 255 268
236 222 235 230 244 277 249 238 248 242 232 266 256 256 263 280 293 294 292 298 283 274 284 283 278 273 270 269 274 273 274 271 267 262 257 244 234 232 234 237 243 251 260 272
249 253 255 261 259 262 268 270 267 262 257 256 253 247 260 269 269 284 285 283 278 279 282 282 280 284 285 281 271 269 270 269 267 260 247 234 228 228 232 238 245 254 265 276
243 192 238 255 256 262 261 263 266 262 254 251 252 258 258 267 273 275 274 277 279 277 279 286 292 293 290 283 282 271 264 260 256 248 238 233 230 232 238 247 255 262 270 279
231 240 234 245 258 252 263 271 279 297 289 270 265 273 265 255 270 276 275 276 280 282 287 290 292 290 287 282 275 270 263 254 245 236 233 234 236 239 246 256 264 270 276 281